Simultaneous Nadir Overpasses (SNOs) Predictions

Prediction of SNOs between METOP-A and NOAA-19 Satellite Orbit:

Table of predicted SNOs for the next 14.0 days since TLE Epoch: 1/30/2015
Index Date (METOP-A) Time (METOP-A) Lat,Lon (METOP-A) SZA (METOP-A ) Date (NOAA-19) Time (NOAA-19) Lat,Lon (NOAA-19) SZA (NOAA-19 ) Distance(km) Time Diff (sec)
1 01/31/2015 16:41:34 75.07, -72.94 92.40 01/31/2015 16:40:26 75.10, -75.50 92.51 73.38 68
2 01/31/2015 17:32:24 -74.65, 93.22 88.00 01/31/2015 17:31:12 -74.64, 93.10 88.00 3.79 72
3 01/31/2015 18:23:05 74.62, -99.54 91.97 01/31/2015 18:22:19 74.63, -99.64 91.98 3.10 46
4 01/31/2015 19:13:47 -74.59, 67.70 88.08 01/31/2015 19:13:14 -74.59, 67.72 88.07 0.78 33
5 01/31/2015 20:04:28 74.56,-125.05 91.89 01/31/2015 20:04:21 74.58,-125.02 91.91 2.65 7
6 01/31/2015 20:55:09 -74.57, 42.32 88.12 01/31/2015 20:55:16 -74.55, 42.34 88.14 2.91 7
7 01/31/2015 21:45:50 74.54,-150.44 91.85 01/31/2015 21:46:23 74.53,-150.40 91.84 1.57 33
8 01/31/2015 22:36:31 -74.55, 16.93 88.15 01/31/2015 22:37:19 -74.55, 16.83 88.16 3.12 48
9 01/31/2015 23:27:12 74.52,-175.82 91.81 01/31/2015 23:28:26 74.53,-175.91 91.82 2.63 74
10 02/01/2015 00:18:04 -74.00, -9.82 88.67 02/01/2015 00:19:11 -74.02, -7.28 88.75 78.07 67
11 02/11/2015 02:42:50 75.18, 137.05 89.34 02/11/2015 02:41:43 75.17, 134.12 89.42 83.18 67
12 02/11/2015 03:33:43 -74.63, -57.17 91.19 02/11/2015 03:32:27 -74.64, -57.05 91.18 3.77 76
13 02/11/2015 04:24:22 74.64, 110.17 88.81 02/11/2015 04:23:34 74.65, 110.13 88.83 2.04 48
14 02/11/2015 05:15:04 -74.61, -82.56 91.23 02/11/2015 05:14:29 -74.64, -82.56 91.20 2.75 35
15 02/11/2015 06:05:44 74.62, 84.78 88.77 02/11/2015 06:05:36 74.61, 84.75 88.76 1.70 8
16 02/11/2015 06:56:26 -74.60,-107.95 91.27 02/11/2015 06:56:31 -74.59,-107.94 91.27 0.43 5
17 02/11/2015 07:47:07 74.55, 59.26 88.68 02/11/2015 07:47:38 74.56, 59.37 88.68 3.23 31
18 02/11/2015 08:37:48 -74.58,-133.34 91.31 02/11/2015 08:38:33 -74.55,-133.33 91.35 3.56 45
19 02/11/2015 09:28:29 74.53, 33.88 88.65 02/11/2015 09:29:41 74.56, 33.85 88.66 3.07 72
20 02/11/2015 10:19:19 -74.12,-159.85 91.74 02/11/2015 10:20:28 -74.17,-157.81 91.78 62.28 69




NCC Satellite Simultaneous Nadir Overpasses (SNOs) Prediction Service
